Weather reports worldwide

Advertisment
Cap Bear, France (7749): temperature & dewpoint: 20.09.2020 13:00:00 - 26.09.2020 13:00:00 (CEST)Cap Bear, France (7749): wind speed & gusts: 20.09.2020 13:00:00 - 26.09.2020 13:00:00 (CEST)Cap Bear, France (7749): wind direction: 20.09.2020 13:00:00 - 26.09.2020 13:00:00 (CEST)Cap Bear, France (7749): reduced air pressure: 20.09.2020 13:00:00 - 26.09.2020 13:00:00 (CEST)Cap Bear, France (7749): visibility: 20.09.2020 13:00:00 - 26.09.2020 13:00:00 (CEST)Cap Bear, France (7749): precipitation: 20.09.2020 13:00:00 - 26.09.2020 13:00:00 (CEST)
Date & Time tt [°C] td [°C] ff [km/h] ff [kn] fx [km/h] fx [kn] dd ppp [hPa] vv [km] rr [mm]
26.09.2020 13:00:00 15,1 7,9 58 32 91 49 NW 1013,1 - 0,0
26.09.2020 12:00:00 15,1 7,9 63 34 96 52 NNW 1012,8 - 0,0
26.09.2020 11:00:00 13,0 9,4 55 30 71 39 NNW 1014,0 - 0,0
26.09.2020 10:00:00 12,3 9,1 50 27 72 39 NNW 1013,9 - 0,4
26.09.2020 09:00:00 13,5 8,5 60 32 94 51 NNW 1013,3 - 0,0
26.09.2020 08:00:00 14,0 7,5 49 27 85 46 NNW 1013,4 - 0,0
26.09.2020 07:00:00 13,7 6,5 64 34 91 49 NW 1012,9 - 0,0
26.09.2020 06:00:00 13,7 6,8 64 35 91 49 NW 1012,7 - 0,0
26.09.2020 05:00:00 14,2 7,7 68 37 96 52 NNW 1012,8 20 0,0
26.09.2020 04:00:00 14,4 9,2 72 39 91 49 NNW 1012,2 - 0,0
26.09.2020 03:00:00 13,3 5,9 45 25 72 39 NW 1015,2 - 0,0
26.09.2020 02:00:00 13,5 6,4 34 18 74 40 NW 1015,1 20 0,0
26.09.2020 01:00:00 14,3 6,6 49 26 75 41 NW 1015,1 - 0,0
26.09.2020 00:00:00 14,1 6,7 42 23 101 55 NW 1014,8 - 0,0
25.09.2020 23:00:00 14,8 6,1 55 30 107 58 NW 1013,5 - 0,0
25.09.2020 22:00:00 14,7 6,0 70 38 107 58 NW 1012,5 - 0,0
25.09.2020 21:00:00 14,7 4,4 60 33 121 65 WNW 1011,5 - 0,0
25.09.2020 20:00:00 14,3 4,3 55 30 - - WNW 1010,9 25 0,0
25.09.2020 19:00:00 13,8 4,4 58 31 123 66 WNW 1010,8 - 0,0
25.09.2020 18:00:00 14,3 6,4 74 40 125 67 NW 1010,8 - 0,0
25.09.2020 17:00:00 15,7 5,9 63 34 128 69 NW 1010,0 20 0,0
25.09.2020 16:00:00 16,7 4,7 74 40 156 84 NW 1008,3 - 0,0
25.09.2020 15:00:00 16,9 4,9 86 46 129 70 NW 1007,3 - 0,0
25.09.2020 14:00:00 16,9 4,6 56 31 123 66 NW 1010,0 20 0,0
25.09.2020 13:00:00 17,3 3,9 75 40 130 70 WNW 1009,1 - 0,0
25.09.2020 12:00:00 16,8 5,1 94 51 132 71 NW 1007,2 - 0,0
25.09.2020 11:00:00 16,4 5,4 95 51 131 71 NW 1006,8 - 0,0
25.09.2020 10:00:00 15,7 6,9 95 52 125 67 NW 1006,1 - 0,0
25.09.2020 09:00:00 13,5 6,4 39 21 100 54 NW 1007,9 - 0,0
25.09.2020 08:00:00 14,5 9,5 73 39 111 60 NNW 1008,5 - 0,6
25.09.2020 07:00:00 14,1 8,7 74 40 101 55 NW 1008,3 - 0,4
25.09.2020 06:00:00 14,8 8,7 59 32 95 52 NW 1009,3 - 0,0
25.09.2020 05:00:00 15,2 9,1 69 37 104 56 NNW 1009,4 25 0,0
25.09.2020 04:00:00 16,8 9,5 60 32 95 52 NW 1008,4 - 0,0
25.09.2020 03:00:00 17,6 10,9 50 27 79 42 NW 1008,4 - 0,0
25.09.2020 02:00:00 18,8 13,4 50 27 65 35 NNW 1008,2 25 0,0
25.09.2020 01:00:00 20,0 13,7 25 13 44 24 NW 1008,6 - 0,0
25.09.2020 00:00:00 20,1 14,0 22 12 42 23 NW 1008,7 - 0,0
24.09.2020 23:00:00 20,0 14,4 30 16 46 25 NW 1009,0 - 0,0
24.09.2020 22:00:00 19,7 16,0 30 16 63 34 NW 1009,3 - 0,0
24.09.2020 21:00:00 20,4 17,2 27 15 40 22 NW 1008,4 - 0,0
24.09.2020 20:00:00 20,3 18,2 16 9 22 12 NW 1007,5 - 0,0
24.09.2020 19:00:00 20,8 17,8 6 4 10 6 NNW 1007,7 - 0,0
24.09.2020 18:00:00 20,8 17,6 5 3 16 9 ESE 1007,7 - 0,0
24.09.2020 17:00:00 21,0 17,8 8 4 18 10 ESE 1008,3 25 0,0
24.09.2020 16:00:00 21,2 17,8 11 6 21 12 E 1008,7 - 0,0
24.09.2020 15:00:00 21,6 17,2 13 7 22 12 E 1009,2 - 0,0
24.09.2020 14:00:00 22,2 18,2 16 8 23 12 SE 1009,8 25 0,0
24.09.2020 13:00:00 22,1 17,5 10 5 13 7 SSE 1010,5 - 0,0
24.09.2020 12:00:00 22,4 16,9 7 4 14 8 NNE 1011,0 - 0,0
24.09.2020 11:00:00 21,0 15,3 14 7 17 9 NW 1011,3 20 0,0
24.09.2020 10:00:00 20,0 16,8 9 5 16 8 NNW 1010,9 - 0,0
24.09.2020 09:00:00 20,1 17,1 4 2 7 4 N 1010,8 - 0,0
24.09.2020 08:00:00 20,9 14,3 9 5 22 12 NW 1010,8 20 0,0
24.09.2020 07:00:00 20,7 15,0 17 9 31 17 NW 1010,7 - 0,0
24.09.2020 06:00:00 20,5 14,8 26 14 33 18 WNW 1010,9 - 0,0
24.09.2020 05:00:00 20,6 14,7 23 12 34 18 WNW 1011,1 - 0,0
24.09.2020 04:00:00 20,5 15,3 23 12 33 18 NW 1011,4 - 0,0
24.09.2020 03:00:00 20,2 17,6 15 8 27 15 NNW 1011,7 - 0,0
24.09.2020 02:00:00 20,5 18,1 26 14 50 27 NNW 1011,6 - 0,0
24.09.2020 01:00:00 21,2 18,0 43 23 54 29 NW 1011,4 - 0,0
24.09.2020 00:00:00 20,0 19,0 28 15 46 25 NW 1011,0 - 0,0
23.09.2020 23:00:00 20,5 19,7 29 16 39 21 NW 1010,6 25 0,0
23.09.2020 22:00:00 20,7 19,7 28 15 38 20 NW 1010,3 - 0,0
23.09.2020 21:00:00 20,7 19,9 24 13 29 16 NW 1009,7 - 0,0
23.09.2020 20:00:00 21,2 20,5 4 2 21 12 NW 1009,4 - 0,0
23.09.2020 19:00:00 21,3 20,6 20 11 37 20 SSE 1009,2 - 0,0
23.09.2020 18:00:00 21,4 20,4 34 18 37 20 SE 1008,9 - 0,0
23.09.2020 17:00:00 21,9 20,0 34 18 40 22 SE 1009,1 20 0,0
23.09.2020 16:00:00 21,9 19,3 35 19 46 25 SE 1009,4 - 0,0
23.09.2020 15:00:00 21,3 18,5 35 19 46 25 SE 1010,0 - 0,0
23.09.2020 14:00:00 21,7 18,1 27 15 36 19 SE 1010,6 25 0,0
23.09.2020 13:00:00 21,5 18,5 22 12 31 17 SE 1011,2 - 0,0
23.09.2020 12:00:00 22,3 19,1 12 7 18 10 SE 1011,6 - 0,0
23.09.2020 11:00:00 21,5 17,1 4 2 11 6 ENE 1011,8 25 0,0
23.09.2020 10:00:00 21,3 17,7 5 3 9 5 ENE 1011,8 - 0,0
23.09.2020 09:00:00 20,5 16,9 2 1 8 5 SE 1011,7 - 0,0
23.09.2020 08:00:00 18,1 15,7 4 2 8 5 SSW 1011,7 25 0,0
23.09.2020 07:00:00 18,7 15,6 3 2 9 5 SE 1011,4 - 0,0
23.09.2020 06:00:00 19,2 14,7 3 2 11 6 S 1011,5 - 0,0
23.09.2020 05:00:00 18,1 15,0 8 4 13 7 NNW 1011,7 20 0,0
23.09.2020 04:00:00 18,7 16,1 3 2 13 7 NNW 1011,7 - 0,0
23.09.2020 03:00:00 18,6 16,9 10 5 14 7 NNW 1012,5 - 0,0
23.09.2020 02:00:00 18,9 15,8 7 4 16 9 SSW 1012,4 15 0,0
23.09.2020 01:00:00 18,1 16,3 12 6 16 9 S 1012,8 - 0,0
23.09.2020 00:00:00 18,7 15,6 5 3 15 8 SW 1013,6 - 0,0
22.09.2020 23:00:00 19,0 16,8 5 3 12 6 ESE 1013,8 15 0,0
22.09.2020 22:00:00 18,5 16,8 9 5 23 13 S 1013,5 - 0,2
22.09.2020 21:00:00 18,9 16,7 15 8 24 13 NW 1013,1 - 0,2
22.09.2020 20:00:00 18,6 16,4 18 10 24 13 WNW 1012,9 15 0,6
22.09.2020 19:00:00 18,7 17,4 21 11 32 17 S 1012,6 - 2,6
22.09.2020 18:00:00 20,5 16,7 21 12 38 21 S 1012,4 25 0,0
22.09.2020 17:00:00 20,2 17,4 28 15 36 20 SSE 1012,7 25 0,0
22.09.2020 16:00:00 20,7 16,9 27 15 33 18 SSE 1013,1 - 0,0
22.09.2020 15:00:00 22,3 16,6 22 12 31 17 SE 1013,4 - 0,0
22.09.2020 14:00:00 22,8 15,6 8 4 16 9 ESE 1014,1 25 0,0
22.09.2020 13:00:00 24,2 15,7 6 4 15 8 NE 1014,6 - 0,0
22.09.2020 12:00:00 21,5 14,4 10 6 - - WNW 1015,1 - 0,0
22.09.2020 11:00:00 21,1 15,0 13 7 22 12 NW 1014,9 - 0,0
22.09.2020 10:00:00 20,5 14,6 15 8 29 16 NW 1015,0 - 0,0
22.09.2020 09:00:00 19,9 14,7 21 11 31 17 NW 1014,6 - 0,0
22.09.2020 08:00:00 19,5 14,5 22 12 32 18 NW 1014,5 20 0,0
22.09.2020 07:00:00 19,6 14,6 22 12 29 16 NW 1014,6 - 0,0
22.09.2020 06:00:00 19,6 14,8 21 11 28 15 WNW 1014,7 - 0,0
22.09.2020 05:00:00 19,8 14,8 19 10 26 14 NW 1014,6 - 0,0
22.09.2020 04:00:00 19,9 14,5 19 10 24 13 WNW 1014,9 - 0,0
22.09.2020 03:00:00 20,3 14,9 19 10 31 17 NW 1015,2 - 0,0
22.09.2020 02:00:00 20,0 15,0 25 13 36 20 WNW 1015,2 20 0,0
22.09.2020 01:00:00 20,1 15,1 24 13 35 19 WNW 1015,8 - 0,0
22.09.2020 00:00:00 20,9 15,2 18 10 33 18 WNW 1016,2 - 0,0
21.09.2020 23:00:00 21,1 15,4 18 10 30 16 W 1016,1 20 0,0
21.09.2020 22:00:00 19,9 15,9 6 4 10 5 WNW 1015,8 - 0,0
21.09.2020 21:00:00 20,2 13,4 8 4 16 9 SW 1015,4 - 0,0
21.09.2020 20:00:00 19,6 16,4 4 2 25 13 NNW 1015,5 - 0,0
21.09.2020 19:00:00 19,1 16,1 18 10 24 13 SSW 1015,0 - 0,2
21.09.2020 18:00:00 19,1 16,0 11 6 22 12 NW 1015,2 - 1,0
21.09.2020 17:00:00 18,7 16,8 21 11 32 17 SSW 1015,5 - 1,8
21.09.2020 16:00:00 19,3 16,5 22 12 31 17 SW 1016,1 - 0,2
21.09.2020 15:00:00 21,9 16,4 6 3 16 9 ESE 1016,2 - 0,0
21.09.2020 14:00:00 23,7 17,2 12 6 19 10 NNE 1016,4 - 0,0
21.09.2020 13:00:00 22,8 15,9 18 10 26 14 NNW 1016,5 - 0,0
21.09.2020 12:00:00 22,8 14,9 19 10 25 13 NW 1016,6 - 0,0
21.09.2020 11:00:00 21,7 15,1 17 9 24 13 NW 1017,0 - 0,0
21.09.2020 10:00:00 20,6 14,7 21 11 31 17 WNW 1016,5 - 0,0
21.09.2020 09:00:00 20,4 15,6 24 13 32 17 NW 1016,0 - 0,0
21.09.2020 08:00:00 20,0 14,8 23 12 37 20 NW 1015,6 - 0,0
21.09.2020 07:00:00 20,0 15,4 27 15 37 20 NW 1015,0 - 0,0
21.09.2020 06:00:00 20,1 16,5 26 14 35 19 NW 1015,1 - 0,0
21.09.2020 05:00:00 20,8 15,6 24 13 38 21 NW 1015,2 20 0,0
21.09.2020 04:00:00 21,1 15,2 23 13 39 21 NW 1015,4 - 0,0
21.09.2020 03:00:00 21,4 15,0 24 13 40 22 NW 1015,7 - 0,2
21.09.2020 02:00:00 21,9 15,5 26 14 44 24 NW 1015,9 30 0,0
21.09.2020 01:00:00 20,7 16,7 20 11 31 17 NW 1015,7 - 0,0
21.09.2020 00:00:00 23,0 14,8 7 4 11 6 WSW 1015,7 - 0,0
20.09.2020 23:00:00 22,2 15,1 8 4 13 7 NW 1015,9 30 0,0
20.09.2020 22:00:00 22,4 15,5 7 4 23 12 WSW 1015,8 - 0,0
20.09.2020 21:00:00 22,0 15,8 13 7 23 12 SSW 1015,1 - 0,0
20.09.2020 20:00:00 22,0 16,3 16 9 27 15 S 1014,5 - 0,0
20.09.2020 19:00:00 22,0 15,8 14 8 22 12 S 1014,5 - 0,0
20.09.2020 18:00:00 22,2 16,9 15 8 18 10 SSE 1014,2 - 0,0
20.09.2020 17:00:00 22,5 15,3 7 4 11 6 S 1014,4 30 0,0
20.09.2020 16:00:00 22,8 14,6 5 3 10 5 S 1014,8 - 0,0
20.09.2020 15:00:00 22,9 16,7 3 2 13 7 E 1015,1 - 0,0
20.09.2020 14:00:00 23,1 17,3 9 5 23 13 NE 1015,3 25 0,0
20.09.2020 13:00:00 23,7 18,1 20 11 24 13 NNE 1015,3 - 0,0

tt = temperature
td = dewpoint
ff = wind speed
fx = gusts
dd = wind direction
ppp = reduced air pressure
vv = visibility
rr = precipitation

Next stations